User: anonymous   Login
Location: Frankfurt am Main
(50.1109°N, 8.6821°E)
Time: 22:11:05
(UTC+01:00)
Language:

BEESAT 3 - Orbit

View from above orbital plane
View from above orbital plane
View from above satellite
View from above satellite

Ground track
Ground track

The orbit data is extracted from the following two-line orbital elements,

1 39134U 13015E   22021.59841511  .00005706  00000-0  23707-3 0  9991
2 39134  64.8626 182.2336 0028578 302.7612  57.0764 15.24467513484441
Epoch (UTC): 21 January 2022 14:21:43
Eccentricity: 0.0028578
inclination: 64.8626°
perigee height: 473 km
apogee height: 512 km
right ascension of ascending node: 182.2336°
argument of perigee: 302.7612°
revolutions per day: 15.24467513
mean anomaly at epoch: 57.0764°
orbit number at epoch: 48444

The dashed part of the orbit path shows where the satellite is in the earth's shadow,  

DLR